| time (UTC) | temp F | wind direction | speed knots | gust knots | rain 1hr in | rain 24hr in | rain mn in | humidity % | barometer mb |
| 20260506211410 | 77 | 343 | 0.0 | 4.3 | 0.00 | 0.00 | 0.00 | 53 | 1019.0 |
| 20260506205225 | 76 | 355 | 0.0 | 0.9 | 0.00 | 0.00 | 0.00 | 54 | 1019.3 |
| 20260506204238 | 75 | 336 | 0.0 | 0.0 | 0.00 | 0.00 | 0.00 | 53 | 1019.3 |
| 20260506203300 | 75 | 46 | 0.0 | 3.5 | 0.00 | 0.00 | 0.00 | 55 | 1019.4 |
| 20260506202248 | 74 | 350 | 0.0 | 0.0 | 0.00 | 0.00 | 0.00 | 54 | 1019.6 |
| 20260506201253 | 74 | 24 | 0.0 | 0.0 | 0.00 | 0.00 | 0.00 | 56 | 1019.7 |
| 20260506195126 | 74 | 290 | 0.0 | 0.0 | 0.00 | 0.00 | 0.00 | 57 | 1019.7 |
| 20260506192959 | 72 | 63 | 0.0 | 1.7 | 0.00 | 0.00 | 0.00 | 58 | 1020.0 |
| 20260506190822 | 72 | 302 | 0.0 | 0.0 | 0.00 | 0.00 | 0.00 | 62 | 1020.4 |
| 20260506185809 | 71 | 30 | 0.0 | 0.9 | 0.00 | 0.00 | 0.00 | 63 | 1020.4 |
| 20260506183656 | 69 | 296 | 0.0 | 0.0 | 0.00 | 0.00 | 0.00 | 66 | 1020.6 |
| 20260506182712 | 68 | 339 | 0.0 | 0.0 | 0.00 | 0.00 | 0.00 | 67 | 1020.6 |
| 20260506181659 | 67 | 207 | 0.0 | 0.0 | 0.00 | 0.00 | 0.00 | 72 | 1020.6 |
| 20260506180654 | 65 | 175 | 0.0 | 0.0 | 0.00 | 0.00 | 0.00 | 71 | 1020.7 |
| 20260506175649 | 64 | 176 | 0.0 | 0.0 | 0.00 | 0.00 | 0.00 | 74 | 1020.6 |
| 20260506174658 | 63 | 190 | 0.0 | 1.7 | 0.00 | 0.00 | 0.00 | 75 | 1020.6 |
| 20260506173710 | 63 | 192 | 0.0 | 0.0 | 0.00 | 0.00 | 0.00 | 75 | 1020.7 |
| 20260506172727 | 62 | 193 | 0.0 | 0.0 | 0.00 | 0.00 | 0.00 | 76 | 1020.6 |
| 20260506170627 | 62 | 194 | 0.0 | 0.0 | 0.00 | 0.00 | 0.00 | 77 | 1020.7 |
| 20260506165601 | 61 | 194 | 0.0 | 0.0 | 0.00 | 0.00 | 0.00 | 78 | 1020.7 |
| 20260506163350 | 60 | 196 | 0.0 | 0.9 | 0.00 | 0.00 | 0.00 | 79 | 1020.6 |
| 20260506162401 | 60 | 201 | 0.0 | 0.9 | 0.00 | 0.00 | 0.00 | 80 | 1020.6 |
| 20260506161425 | 60 | 229 | 0.0 | 0.0 | 0.00 | 0.00 | 0.00 | 80 | 1020.6 |
| 20260506155255 | 59 | 182 | 0.0 | 0.9 | 0.00 | 0.00 | 0.00 | 80 | 1020.6 |
| 20260506153136 | 59 | 178 | 0.0 | 0.0 | 0.00 | 0.00 | 0.00 | 82 | 1020.6 |
| 20260506152125 | 58 | 178 | 0.0 | 0.0 | 0.00 | 0.00 | 0.00 | 82 | 1020.5 |
| 20260506145939 | 58 | 178 | 0.0 | 0.0 | 0.00 | 0.00 | 0.00 | 83 | 1020.5 |
| 20260506144953 | 57 | 178 | 0.0 | 0.0 | 0.00 | 0.00 | 0.00 | 83 | 1020.5 |
| 20260506142830 | 57 | 178 | 0.0 | 0.0 | 0.00 | 0.00 | 0.00 | 85 | 1020.5 |
| 20260506141845 | 57 | 178 | 0.0 | 0.0 | 0.00 | 0.00 | 0.00 | 85 | 1020.3 |
| 20260506140837 | 57 | 177 | 0.0 | 0.0 | 0.00 | 0.00 | 0.00 | 85 | 1020.3 |
| 20260506135822 | 57 | 177 | 0.0 | 0.0 | 0.00 | 0.00 | 0.00 | 85 | 1020.1 |
| 20260506134825 | 57 | 177 | 0.0 | 0.0 | 0.00 | 0.00 | 0.00 | 86 | 1020.1 |
| 20260506133832 | 57 | 177 | 0.0 | 0.0 | 0.00 | 0.00 | 0.00 | 85 | 1019.9 |
| 20260506132849 | 57 | 177 | 0.0 | 0.0 | 0.00 | 0.00 | 0.00 | 85 | 1019.9 |
| 20260506131907 | 57 | 177 | 0.0 | 0.0 | 0.00 | 0.00 | 0.00 | 85 | 1019.8 |
| 20260506130913 | 57 | 177 | 0.0 | 0.0 | 0.00 | 0.00 | 0.00 | 85 | 1019.8 |
| 20260506125905 | 57 | 177 | 0.0 | 0.0 | 0.00 | 0.00 | 0.00 | 85 | 1019.9 |
| 20260506123744 | 57 | 178 | 0.0 | 0.0 | 0.00 | 0.00 | 0.00 | 85 | 1019.7 |
| 20260506122731 | 57 | 184 | 0.0 | 0.0 | 0.00 | 0.00 | 0.00 | 85 | 1019.6 |
| 20260506120529 | 57 | 184 | 0.0 | 0.0 | 0.00 | 0.00 | 0.00 | 85 | 1019.5 |
| 20260506115539 | 57 | 184 | 0.0 | 0.0 | 0.00 | 0.00 | 0.00 | 85 | 1019.4 |
| 20260506114510 | 57 | 185 | 0.0 | 0.0 | 0.00 | 0.00 | 0.00 | 86 | 1019.4 |
| 20260506113534 | 57 | 186 | 0.0 | 0.0 | 0.00 | 0.00 | 0.00 | 85 | 1019.4 |
| 20260506111404 | 57 | 188 | 0.0 | 0.0 | 0.00 | 0.00 | 0.00 | 85 | 1019.2 |
| 20260506110424 | 57 | 188 | 0.0 | 0.9 | 0.00 | 0.00 | 0.00 | 85 | 1019.1 |
| 20260506105436 | 57 | 207 | 0.0 | 0.0 | 0.00 | 0.00 | 0.00 | 85 | 1019.1 |
| 20260506104413 | 57 | 206 | 0.0 | 0.0 | 0.00 | 0.00 | 0.00 | 85 | 1019.0 |
| 20260506102256 | 57 | 207 | 0.0 | 0.0 | 0.00 | 0.00 | 0.00 | 85 | 1018.8 |
| 20260506101317 | 57 | 211 | 0.0 | 0.0 | 0.00 | 0.00 | 0.00 | 85 | 1018.8 |
| 20260506100320 | 57 | 217 | 0.0 | 0.0 | 0.00 | 0.00 | 0.00 | 84 | 1018.7 |
| 20260506095333 | 57 | 218 | 0.0 | 0.0 | 0.00 | 0.00 | 0.00 | 84 | 1018.7 |
| 20260506093259 | 58 | 222 | 0.0 | 0.0 | 0.00 | 0.00 | 0.00 | 83 | 1018.7 |
| 20260506092305 | 58 | 223 | 0.0 | 0.0 | 0.00 | 0.00 | 0.00 | 82 | 1018.7 |
| 20260506091253 | 58 | 225 | 0.0 | 0.0 | 0.00 | 0.00 | 0.00 | 82 | 1018.7 |
| 20260506090233 | 58 | 225 | 0.0 | 0.0 | 0.00 | 0.00 | 0.00 | 82 | 1018.8 |
| 20260506085247 | 58 | 225 | 0.0 | 0.0 | 0.00 | 0.00 | 0.00 | 82 | 1018.8 |
| 20260506083109 | 58 | 226 | 0.0 | 0.0 | 0.00 | 0.00 | 0.00 | 82 | 1018.8 |
| 20260506082038 | 58 | 229 | 0.0 | 0.0 | 0.00 | 0.00 | 0.00 | 82 | 1018.8 |
| 20260506081101 | 59 | 229 | 0.0 | 0.0 | 0.00 | 0.00 | 0.00 | 82 | 1018.7 |
| 20260506072900 | 59 | 231 | 0.0 | 0.0 | 0.00 | 0.03 | 0.00 | 81 | 1018.5 |
| 20260506070715 | 59 | 232 | 0.0 | 0.0 | 0.00 | 0.06 | 0.00 | 80 | 1018.3 |
| 20260506061718 | 60 | 233 | 0.0 | 0.0 | 0.00 | 0.08 | 0.06 | 80 | 1017.8 |
| 20260506060705 | 60 | 233 | 0.0 | 0.0 | 0.00 | 0.10 | 0.06 | 80 | 1017.7 |
| 20260506050512 | 61 | 207 | 0.0 | 2.6 | 0.00 | 0.19 | 0.06 | 79 | 1017.0 |
| 20260506042023 | 62 | 155 | 0.0 | 0.0 | 0.00 | 0.23 | 0.06 | 80 | 1016.6 |
| 20260506035838 | 62 | 155 | 0.0 | 0.0 | 0.00 | 0.31 | 0.06 | 79 | 1016.3 |
| 20260506034812 | 62 | 155 | 0.0 | 0.0 | 0.00 | 0.33 | 0.06 | 79 | 1016.3 |
| 20260506033805 | 62 | 155 | 0.0 | 0.0 | 0.00 | 0.36 | 0.06 | 78 | 1016.3 |
| 20260506032804 | 62 | 155 | 0.0 | 0.0 | 0.00 | 0.41 | 0.06 | 78 | 1016.2 |
| 20260506031757 | 62 | 168 | 0.0 | 0.0 | 0.00 | 0.42 | 0.06 | 77 | 1016.0 |
| 20260506025633 | 62 | 168 | 0.0 | 0.0 | 0.00 | 0.48 | 0.06 | 76 | 1015.7 |
| 20260506024614 | 63 | 177 | 0.0 | 0.0 | 0.00 | 0.48 | 0.06 | 75 | 1015.7 |
| 20260506023550 | 63 | 169 | 0.0 | 0.0 | 0.00 | 0.51 | 0.06 | 75 | 1015.5 |
| 20260506021356 | 63 | 160 | 0.0 | 0.0 | 0.00 | 0.52 | 0.06 | 74 | 1015.3 |
| 20260506020348 | 63 | 157 | 0.0 | 3.5 | 0.00 | 0.53 | 0.06 | 74 | 1015.2 |
| 20260506015331 | 63 | 139 | 0.0 | 3.5 | 0.00 | 0.55 | 0.06 | 74 | 1015.3 |
| 20260506014307 | 64 | 184 | 0.0 | 0.9 | 0.00 | 0.57 | 0.06 | 72 | 1015.3 |
| 20260506013236 | 64 | 184 | 0.0 | 0.9 | 0.00 | 0.58 | 0.06 | 72 | 1015.1 |
| 20260506011130 | 65 | 154 | 0.0 | 1.7 | 0.00 | 0.62 | 0.06 | 71 | 1015.1 |
| 20260506004954 | 65 | 142 | 0.0 | 0.0 | 0.00 | 0.63 | 0.06 | 69 | 1015.0 |
| 20260506003921 | 66 | 173 | 0.0 | 1.7 | 0.00 | 0.65 | 0.06 | 70 | 1014.9 |
| 20260506002918 | 66 | 142 | 0.0 | 0.0 | 0.00 | 0.65 | 0.06 | 69 | 1014.7 |
| 20260506001914 | 66 | 142 | 0.0 | 0.0 | 0.00 | 0.67 | 0.06 | 69 | 1014.8 |
| 20260506000909 | 66 | 149 | 0.0 | 0.0 | 0.00 | 0.68 | 0.06 | 68 | 1014.8 |
| 20260505235915 | 66 | 72 | 0.0 | 0.0 | 0.00 | 0.68 | 0.06 | 69 | 1014.8 |
| 20260505233832 | 66 | 165 | 0.0 | 0.0 | 0.00 | 0.71 | 0.06 | 69 | 1014.8 |
| 20260505231703 | 66 | 151 | 0.0 | 0.0 | 0.00 | 0.74 | 0.06 | 68 | 1014.7 |
| 20260505230703 | 66 | 141 | 0.0 | 0.9 | 0.00 | 0.76 | 0.06 | 65 | 1014.8 |
| 20260505225703 | 66 | 136 | 0.0 | 0.0 | 0.00 | 0.76 | 0.06 | 65 | 1014.8 |
| 20260505224652 | 66 | 150 | 0.0 | 0.9 | 0.00 | 0.76 | 0.06 | 64 | 1014.8 |
| 20260505223620 | 66 | 146 | 0.0 | 0.0 | 0.00 | 0.78 | 0.06 | 64 | 1014.9 |
| 20260505222547 | 66 | 139 | 0.0 | 0.0 | 0.00 | 0.78 | 0.06 | 67 | 1015.0 |
| 20260505221538 | 66 | 139 | 0.0 | 0.9 | 0.00 | 0.78 | 0.06 | 66 | 1015.2 |
| 20260505220547 | 66 | 111 | 0.0 | 0.0 | 0.00 | 0.80 | 0.06 | 66 | 1015.2 |
| 20260505215515 | 66 | 147 | 0.0 | 0.9 | 0.00 | 0.81 | 0.06 | 65 | 1015.3 |
| 20260505214537 | 66 | 175 | 0.0 | 3.5 | 0.00 | 0.82 | 0.06 | 64 | 1015.3 |